Total_Precipitation_Accumulation
0.12 0.25 0.62 1.09 1.95 2.17 1.59 1.00 0.75 0.72 0.77 0.76 0.67 0.66 0.77 0.99 1.43 2.31 2.16 1.70 1.36 1.45 1.84 1.98 2.24 2.15 2.05 1.90 1.87 1.97 1.99 1.85 1.69 1.65 1.69 1.71 1.77 1.72 1.75 1.79 1.82 1.85 1.81 1.84 1.93 1.84 1.81 1.79 1.87
0.24 0.49 0.91 1.64 2.28 1.78 1.46 0.88 0.54 0.59 0.66 0.80 0.80 0.68 0.63 0.71 0.81 1.21 1.70 1.85 1.24 1.12 1.40 1.52 1.81 1.85 1.82 1.69 1.71 1.74 1.68 1.60 1.55 1.50 1.60 1.68 1.77 1.80 1.77 1.79 1.81 1.80 1.77 1.79 1.82 1.81 1.78 1.79 1.91
0.40 0.64 1.01 1.78 1.49 1.14 1.11 0.72 0.50 0.40 0.57 0.81 0.80 0.61 0.72 0.96 1.02 1.31 1.56 1.53 1.18 1.11 1.18 1.41 1.64 1.70 1.69 1.57 1.54 1.54 1.47 1.44 1.46 1.46 1.49 1.57 1.71 1.84 1.87 1.86 1.88 1.91 1.97 1.89 1.83 1.84 1.74 1.71 1.80
0.55 0.78 1.12 1.26 0.74 0.51 0.54 0.56 0.54 0.52 0.70 0.83 0.72 0.68 0.84 1.11 1.14 1.23 1.22 1.21 0.99 1.15 1.23 1.42 1.72 1.68 1.58 1.44 1.36 1.35 1.36 1.37 1.37 1.44 1.58 1.69 1.74 1.78 1.83 1.87 1.92 2.00 1.94 1.87 1.91 1.92 1.68 1.64 1.79
0.59 0.92 1.30 0.89 0.51 0.38 0.33 0.36 0.43 0.59 0.77 0.89 0.79 0.83 1.14 1.25 1.04 0.98 0.96 1.12 1.11 1.27 1.36 1.50 1.75 1.73 1.55 1.35 1.27 1.23 1.18 1.23 1.23 1.31 1.57 1.71 1.71 1.64 1.68 1.81 1.85 1.79 1.84 1.91 1.96 1.91 1.78 1.74 1.76
0.71 0.84 0.99 0.63 0.36 0.29 0.30 0.34 0.48 0.67 0.71 0.78 0.89 1.03 1.42 1.38 1.13 1.02 1.03 1.18 1.26 1.32 1.34 1.56 1.74 1.74 1.58 1.37 1.22 1.19 1.16 1.13 1.17 1.22 1.35 1.49 1.53 1.57 1.67 1.75 1.68 1.64 1.66 1.74 1.86 1.85 1.81 1.70 1.67
0.77 0.83 0.70 0.43 0.32 0.29 0.32 0.39 0.45 0.59 0.69 0.89 0.92 1.06 1.50 1.63 1.27 1.02 1.17 1.49 1.62 1.54 1.36 1.55 1.71 1.57 1.52 1.43 1.24 1.20 1.18 1.14 1.14 1.16 1.24 1.33 1.47 1.56 1.67 1.83 1.78 1.67 1.59 1.64 1.76 1.74 1.83 1.65 1.58
0.47 0.56 0.53 0.40 0.30 0.29 0.26 0.32 0.44 0.60 0.72 0.77 0.90 1.11 1.36 1.39 1.19 1.17 1.46 1.95 2.21 2.08 1.77 1.50 1.50 1.49 1.41 1.36 1.34 1.34 1.20 1.12 1.15 1.25 1.37 1.45 1.57 1.67 1.77 1.86 2.01 1.85 1.72 1.79 1.89 1.80 1.69 1.65 1.70
0.28 0.45 0.40 0.29 0.22 0.25 0.27 0.31 0.37 0.43 0.53 0.77 1.02 1.22 1.20 1.03 1.05 1.30 1.65 2.09 2.35 2.16 1.99 1.70 1.54 1.50 1.51 1.43 1.29 1.50 1.37 1.28 1.41 1.68 1.76 1.97 2.13 2.02 2.13 2.02 2.22 2.08 2.07 2.27 2.36 2.25 2.10 2.03 2.06
0.23 0.29 0.20 0.12 0.12 0.14 0.19 0.27 0.33 0.47 0.78 1.24 1.51 1.42 1.21 1.08 1.19 1.47 1.75 1.88 1.99 2.00 1.94 1.96 1.73 1.66 1.67 1.54 1.74 2.16 1.90 1.90 2.13 2.26 2.20 2.73 2.98 2.79 2.22 2.28 2.67 2.68 2.77 2.89 2.94 2.98 2.73 2.49 2.42
0.12 0.14 0.09 0.07 0.08 0.10 0.13 0.21 0.31 0.51 1.03 1.50 1.72 1.45 1.26 1.27 1.37 1.53 1.94 2.09 2.19 2.19 2.03 2.10 2.00 1.93 2.01 2.16 2.16 2.38 2.54 2.71 2.83 2.79 2.84 3.20 3.06 2.69 2.40 2.64 3.06 3.13 3.11 3.16 3.30 3.38 2.89 2.83 2.87
0.06 0.06 0.06 0.05 0.06 0.07 0.11 0.20 0.40 0.66 1.05 1.31 1.25 1.12 1.12 1.40 1.60 1.79 2.12 2.45 2.54 2.61 2.55 2.33 2.23 2.46 2.57 2.48 2.41 2.28 2.13 2.20 2.48 2.61 2.57 3.10 3.51 3.37 3.21 3.32 3.29 3.46 3.67 3.94 3.61 3.54 3.31 3.22 3.03
0.04 0.05 0.05 0.05 0.06 0.09 0.12 0.21 0.42 0.73 0.94 0.99 0.86 0.91 1.19 1.55 1.79 2.25 2.68 2.76 2.75 3.01 3.19 2.99 2.91 2.90 2.78 2.88 2.54 2.18 2.10 1.94 1.96 2.35 2.64 2.89 3.25 3.43 3.45 3.26 3.28 3.11 3.24 3.42 3.44 3.17 3.26 3.39 3.33
0.03 0.04 0.06 0.08 0.08 0.12 0.20 0.28 0.41 0.64 0.73 0.74 0.81 1.04 1.27 1.70 2.00 2.52 3.03 3.09 3.19 3.47 3.70 3.59 3.58 3.40 3.13 2.90 2.80 2.64 2.35 2.26 2.01 2.29 2.43 2.72 3.08 3.22 3.12 3.18 3.31 3.11 3.10 3.11 3.14 3.19 3.47 3.65 3.72
0.04 0.07 0.13 0.14 0.14 0.15 0.24 0.48 0.54 0.71 0.78 0.76 0.93 1.10 1.47 1.93 2.22 2.54 2.75 3.14 3.59 3.99 4.07 4.04 4.05 3.98 3.96 3.65 3.24 2.87 2.74 2.47 2.40 2.42 2.34 2.60 2.95 3.20 3.13 3.12 2.97 2.93 2.99 3.13 3.16 3.29 3.47 3.35 3.47
0.08 0.14 0.30 0.27 0.21 0.20 0.29 0.76 0.90 0.83 0.78 0.86 1.02 1.33 1.60 1.90 2.31 2.52 2.83 3.18 3.60 4.13 4.54 4.64 4.14 4.13 4.23 4.19 3.88 3.40 3.29 3.14 2.94 2.65 2.52 2.51 2.79 2.90 2.96 2.77 2.69 2.74 2.62 2.74 2.99 3.04 3.12 3.24 3.45
0.13 0.19 0.27 0.37 0.25 0.23 0.36 0.90 1.22 0.92 0.73 0.88 1.17 1.45 1.80 2.05 2.46 2.58 2.75 3.03 3.51 4.42 5.31 5.32 4.83 4.43 4.17 4.16 4.25 4.09 3.90 3.57 3.11 2.88 2.79 2.64 2.53 2.36 2.44 2.45 2.55 2.45 2.42 2.51 2.38 2.85 3.05 3.22 3.32
0.11 0.17 0.29 0.43 0.30 0.29 0.43 0.85 0.90 0.79 0.94 0.95 1.02 1.21 1.54 1.67 1.97 2.24 2.52 3.08 3.91 5.11 5.90 5.80 5.16 4.75 4.45 4.30 4.18 4.18 3.92 3.65 3.19 3.02 2.87 2.58 2.57 2.24 2.27 2.24 2.35 2.24 2.38 2.60 2.74 3.02 3.02 2.94 3.00
0.09 0.15 0.27 0.32 0.26 0.36 0.47 0.69 0.80 0.93 1.11 1.10 0.96 1.01 1.30 1.50 1.78 2.25 2.79 3.65 4.74 5.68 5.96 5.47 4.98 4.66 4.28 3.94 3.38 3.08 3.17 3.13 2.87 2.61 2.30 2.21 2.10 2.17 2.39 2.18 2.39 2.22 2.32 2.45 2.54 2.68 2.74 2.65 2.68
0.10 0.16 0.26 0.32 0.24 0.30 0.47 0.78 1.10 1.10 1.03 0.97 1.03 1.06 1.15 1.52 1.96 2.70 3.71 4.29 4.57 4.72 4.46 4.13 3.89 3.69 3.24 3.00 2.90 2.72 2.79 2.53 2.38 2.28 2.33 1.98 1.86 1.94 1.93 2.20 2.21 2.22 2.42 2.48 2.46 2.60 2.57 2.39 2.45
0.13 0.17 0.25 0.32 0.23 0.27 0.51 1.02 1.31 1.27 1.04 0.90 0.98 1.00 1.15 1.56 2.15 2.97 3.55 3.68 3.44 3.11 2.99 2.94 3.02 2.78 2.67 2.75 2.70 2.65 2.73 2.45 2.25 2.18 2.25 1.90 1.66 1.67 1.79 1.90 2.03 2.26 2.20 2.38 2.44 2.33 2.42 2.46 2.43
0.13 0.11 0.10 0.14 0.24 0.43 0.64 1.30 1.50 1.26 1.17 0.98 1.01 1.02 1.04 1.33 1.72 2.15 2.42 2.30 2.40 2.53 2.53 2.65 2.74 2.50 2.49 2.45 2.22 2.17 2.15 2.05 2.01 2.03 2.12 2.17 1.78 1.60 1.59 1.70 1.87 2.07 1.99 2.26 2.02 2.15 2.42 2.50 2.36
0.07 0.06 0.08 0.16 0.31 0.52 0.71 1.02 1.24 1.05 1.20 0.99 0.88 0.89 0.83 1.00 1.15 1.28 1.41 1.53 1.72 1.84 2.01 2.28 2.53 2.48 2.32 2.14 2.13 2.23 2.10 2.10 2.10 2.12 2.21 2.29 2.06 1.79 1.60 1.70 1.86 1.94 1.87 1.94 1.96 2.33 2.33 2.27 2.23
0.06 0.09 0.19 0.30 0.48 1.01 0.96 0.94 1.17 1.13 1.22 0.98 0.81 0.72 0.75 0.88 1.01 1.07 1.10 1.22 1.38 1.52 1.74 2.00 2.33 2.40 2.28 2.13 2.07 2.16 2.23 2.24 2.18 2.20 2.19 2.01 1.95 1.93 1.76 1.77 1.86 1.79 1.76 1.81 1.89 2.15 2.18 2.26 2.35
0.08 0.13 0.35 0.71 1.09 1.25 0.81 0.89 1.13 0.93 0.87 0.73 0.52 0.52 0.64 0.83 0.98 1.06 1.01 0.98 1.04 1.19 1.34 1.44 1.67 1.94 2.05 2.01 2.00 2.05 2.22 2.16 2.01 1.91 1.87 1.86 1.68 1.61 1.66 1.73 1.87 1.71 1.65 1.73 1.97 2.09 2.11 2.21 2.24
0.07 0.08 0.21 0.38 0.47 0.63 0.79 1.16 1.26 0.93 0.65 0.41 0.34 0.45 0.68 0.82 0.85 0.91 0.92 0.88 0.85 0.95 1.12 1.25 1.49 1.67 1.88 1.92 1.92 1.96 2.06 1.98 1.84 1.87 1.69 1.68 1.62 1.52 1.61 1.66 1.66 1.62 1.63 1.64 2.01 1.94 2.00 2.09 2.01
0.08 0.08 0.09 0.16 0.21 0.43 0.81 1.10 1.05 0.83 0.65 0.47 0.40 0.45 0.66 0.69 0.66 0.81 0.87 0.97 0.97 0.94 1.05 1.19 1.46 1.73 1.94 2.04 2.10 2.04 2.06 2.07 2.02 1.95 1.72 1.54 1.66 1.57 1.66 1.72 1.67 1.69 1.83 1.99 2.17 2.02 2.04 2.12 1.93
0.08 0.09 0.10 0.12 0.21 0.37 0.65 1.05 1.24 1.04 0.83 0.66 0.55 0.54 0.64 0.69 0.70 0.92 1.07 1.06 0.94 0.80 0.88 1.06 1.32 1.71 1.92 2.07 2.06 1.95 2.12 2.04 2.01 1.95 1.79 1.62 1.61 1.61 1.73 1.87 1.84 1.89 1.94 2.08 2.18 1.99 2.07 2.07 1.96
0.09 0.10 0.12 0.12 0.15 0.24 0.51 0.74 0.70 0.66 0.62 0.65 0.70 0.64 0.55 0.64 0.77 0.96 1.17 1.14 0.90 0.80 0.78 0.93 1.26 1.56 1.72 1.84 1.92 1.84 1.81 1.75 1.76 1.81 1.80 1.77 1.75 1.70 1.73 1.84 1.89 1.86 1.90 1.99 2.08 1.92 1.99 1.95 1.97
0.11 0.13 0.16 0.19 0.17 0.16 0.29 0.52 0.41 0.47 0.57 0.65 0.73 0.78 0.78 0.80 0.83 0.81 0.96 1.12 1.03 0.92 0.87 1.03 1.31 1.50 1.58 1.63 1.66 1.67 1.71 1.70 1.62 1.60 1.68 1.75 1.66 1.57 1.63 1.69 1.68 1.61 1.71 1.87 1.90 1.82 1.91 1.96 1.93